Tracking 26911 objects as of 8-Feb-2023
HD Live streaming from Space Station
objects crossing your sky now

AMOS 2

Track AMOS 2 now!
AMOS 2 is classified as:


NORAD ID: 28132
Int'l Code: 2003-059A
Perigee: 36,034.6 km
Apogee: 36,048.0 km
Inclination: 5.5 °
Period: 1,448.8 minutes
Semi major axis: 42412 km
RCS: 36.2156 m2 (large)
Launch date: December 27, 2003
Source: Israel (ISRA)
Launch site: TYURATAM MISSILE AND SPACE COMPLEX (TTMTR)

Ku-band communications, Europe, Middle East, East Coast of USA.
Your satellite tracking list
Your tracking list is empty




NASA's NSSDC Master Catalog

Two Line Element Set (TLE):
1 28132U 03059A   23039.11572943 -.00000152  00000-0  00000+0 0  9990
2 28132   5.4889  75.7682 0001584   8.5968 198.4123  0.99395122 69914
Source of the keplerian elements: AFSPC